NOAA 16 DEB, 41304

Orbit data source: Space-Track

NOAA 16 DEB, 41304 is space debris in SSO originally from a launch on Thu, 21 Sep 2000 UTC launched from the Air Force Western Test Range (AFWTR). Debris objects in space refer to the collection of defunct objects orbiting the Earth. Examples of debris include non-operational satellites, rocket bodies, and fragments generated from explosions, collisions, or faulty payload assembly.

Loading next visibility...
Identifier
41304, 2000-055HG
Orbit
SSO
Country
Flag of USUS
Related business
Manufacturer
Unknown
Mission
Spacecraft
Bus & Motor
Unknown
Mass
Unknown
Launch date (UTC)
2000-09-21 (26 years ago)
Launch vehicle
Unknown
Launch site
Air Force Western Test Range (AFWTR)
Object type
Payload
Rocket body
Debris
Shape & HBR
Unknown shape, 0.1 m
Radar Cross Section
Medium (>0.1 m² and <1 m²)

Expand to show TLE details & history
Last TLE update: 11 hours ago

TLE from 11 hours ago
0 NOAA 16 DEB
1 41304U 00055HG  26219.94345106  .00003062  00000-0  10347-2 0  9992
2 41304  99.0812  30.1708 0032862 121.6317 238.8081 14.37366151547939
Epoch: 2026-08-07T22:38Z
TLE epoch observation values (Epoch: 2026-08-07T22:38:34.171Z)
Latitude
-0.00004°
Longitude
94.06653°
Altitude
782.36 km
Speed
7.456 km/s
True Right ascension
02h 00m 40s
True Declination
0° 00' 00"
Sunlit
Object was in daylight at epoch
Visualization orbit readout
Latitude
Unknown
Longitude
Unknown
Altitude
Unknown
Speed
Unknown
Apparent Right ascension
Unknown
Apparent Declination
Unknown
Sunlit
N/A
Visualization observer readout
Local Sidereal Time
23:43:28
Azimuth
Unknown
Elevation
Unknown
Doppler factor
Unknown
Orbital elements
Apogee altitude
787.839 km
Perigee altitude
740.896 km
Semi-major axis
7,142.505 km
Eccentricity
0.00329
Inclination
99.0812°
RAAN
30.1708°
Arg. of periapsis
121.6317°
True anomaly
238.48665°
Mean anomaly
238.8081°
Eccentric anomaly
238.64731°
Mean motion
3.59557 °/min
Orbital period
100.12 mins
BSTAR
0.0010347
Loading maneuver chart data...
Computing Atmospheric mass density...
Loading historical data...
Loading historical data...
Loading historical data...
Loading historical data...
Loading historical data...
Loading historical data...
Loading historical data...

Documentation

Showing up to 5 results
|